"startDT [UTC]","vpos","CH4 [ppm]","stdev(CH4) [ppm]","CO2 [ppm]","stdev(CO2) [ppm]","H2O [ppm]","stdev(H2O)","p_LGR [torr]","T_LGR [C]","mt1_LGR [us]","mt2_LGR [us]","T_ECpre [C]","T_EC1 [C]","T_EC2 [C]","p_inlet [hPa]","p_in [hPa]","p_out [hPa]","T_inlet [C]","RH_inlet [%]","dwpt_inlet [C]","T_vent [C]","RH_vent [%]","dwpt_vent [C]","flow_vent [l min-1]","flow_inlet [l min-1]","dwpt_sample [C]","T_room [C]"
2012-07-09 00:00:00,1.0,1.9016,0.0059,383.41,0.45,168.0,42.8,138.01,32.59,24.65,36.41,1.00,-25.71,-13.69,-63,572,-925,28.6,21.4,4.4,28.5,1.2,-30.8,5.73,2.31,-26.1,32.6
2012-07-09 00:01:00,1.0,1.9084,0.0012,383.31,0.31,168.4,32.4,138.01,32.60,24.65,36.42,1.02,-25.71,-14.57,-63,571,-925,28.6,21.1,4.2,28.6,1.2,-30.8,5.73,2.32,-26.1,32.6
2012-07-09 00:02:00,1.0,1.9083,0.0009,383.37,0.26,166.2,41.2,138.01,32.61,24.65,36.41,1.08,-25.71,-15.47,-63,571,-925,28.6,21.3,4.3,28.6,1.2,-30.8,5.73,2.28,-26.1,32.6
2012-07-09 00:03:00,1.0,1.9083,0.0010,383.36,0.28,158.3,35.6,138.01,32.62,24.65,36.42,1.07,-25.72,-16.32,-63,572,-925,28.7,21.9,4.7,28.6,1.2,-30.8,5.73,2.31,-26.1,32.6
2012-07-09 00:04:00,1.0,1.9086,0.0010,383.27,0.27,171.5,32.8,138.01,32.63,24.65,36.42,0.99,-25.72,-17.11,-63,572,-925,28.7,21.7,4.7,28.6,1.2,-30.8,5.73,2.31,-26.1,32.7
2012-07-09 00:05:00,0.0,1.9003,0.0056,383.12,0.36,164.1,33.3,138.01,32.64,24.65,36.41,1.05,-25.73,-17.75,-63,550,-925,28.7,21.6,4.6,28.6,1.2,-30.8,5.73,2.30,-26.1,32.7
2012-07-09 00:06:00,0.0,1.8938,0.0010,382.69,0.28,184.6,43.6,138.01,32.65,24.65,36.41,1.10,-25.74,-18.41,-63,550,-925,28.7,22.3,5.1,28.6,1.2,-30.7,5.73,2.32,-26.1,32.7
2012-07-09 00:07:00,0.0,1.8945,0.0011,382.39,0.29,175.9,34.7,138.01,32.65,24.65,36.42,1.02,-25.74,-19.09,-63,550,-925,28.7,22.7,5.4,28.6,1.2,-30.7,5.73,2.31,-26.1,32.8
2012-07-09 00:08:00,0.0,1.8951,0.0014,382.47,0.26,175.1,32.3,138.01,32.66,24.65,36.41,1.00,-25.75,-19.71,-64,550,-925,28.8,22.3,5.1,28.7,1.2,-30.8,5.73,2.29,-26.2,32.8
2012-07-09 00:09:00,0.0,1.8947,0.0011,382.60,0.24,170.3,36.7,138.01,32.67,24.65,36.42,1.05,-25.76,-20.31,-64,551,-925,28.8,21.8,4.8,28.7,1.2,-30.7,5.73,2.32,-26.2,32.8
2012-07-09 00:10:00,0.0,1.8948,0.0011,382.67,0.27,176.1,36.4,138.01,32.68,24.65,36.41,1.08,-25.77,-20.86,-64,551,-925,28.8,21.7,4.8,28.7,1.2,-30.7,5.73,2.30,-26.2,32.7
2012-07-09 00:11:00,0.0,1.8952,0.0011,382.62,0.29,176.1,38.9,138.01,32.69,24.65,36.41,1.01,-25.78,-21.37,-64,551,-925,28.8,22.1,5.0,28.7,1.2,-30.7,5.73,2.30,-26.2,32.6
2012-07-09 00:12:00,0.0,1.8953,0.0013,382.71,0.41,173.5,37.5,138.01,32.70,24.65,36.42,0.99,-25.78,-21.85,-64,551,-925,28.8,21.0,4.3,28.7,1.2,-30.7,5.73,2.32,-26.3,32.7
2012-07-09 00:13:00,0.0,1.8949,0.0010,382.94,0.27,165.4,33.5,138.01,32.71,24.65,36.41,1.06,-25.79,-22.30,-63,551,-925,28.8,21.3,4.5,28.7,1.2,-30.7,5.73,2.28,-26.3,32.7
2012-07-09 00:14:00,0.0,1.8952,0.0009,382.61,0.28,174.0,37.8,138.01,32.72,24.65,36.41,1.09,-25.80,-22.72,-64,551,-925,28.8,21.7,4.8,28.7,1.2,-30.7,5.73,2.31,-26.3,32.8
2012-07-09 00:15:00,0.0,1.8961,0.0010,382.21,0.28,165.1,38.1,138.01,32.73,24.65,36.42,1.01,-25.81,-23.13,-64,551,-925,28.8,22.3,5.2,28.7,1.2,-30.8,5.73,2.31,-26.3,32.8
2012-07-09 00:16:00,0.0,1.8951,0.0010,382.36,0.33,171.6,35.1,138.01,32.74,24.65,36.41,0.99,-25.81,-23.51,-63,551,-925,28.9,22.3,5.2,28.8,1.2,-30.9,5.73,2.28,-26.3,32.8
2012-07-09 00:17:00,0.0,1.8943,0.0011,382.50,0.33,175.5,33.9,138.01,32.75,24.65,36.41,1.05,-25.82,-23.86,-64,551,-925,28.9,21.6,4.7,28.8,1.2,-30.9,5.73,2.31,-26.3,32.8
2012-07-09 00:18:00,0.0,1.8942,0.0012,382.68,0.26,166.7,32.3,138.01,32.76,24.65,36.41,1.08,-25.83,-24.20,-64,551,-925,28.9,21.7,4.8,28.8,1.2,-30.9,5.73,2.30,-26.3,32.9
2012-07-09 00:19:00,0.0,1.8964,0.0012,382.09,0.40,171.5,37.8,138.01,32.77,24.65,36.41,1.03,-25.84,-24.52,-64,551,-925,28.9,23.2,5.8,28.8,1.2,-30.9,5.73,2.29,-26.3,32.9
2012-07-09 00:20:00,0.0,1.8969,0.0010,381.75,0.26,170.5,34.9,138.01,32.78,24.65,36.41,0.98,-25.85,-24.82,-64,551,-925,28.9,23.3,5.9,28.8,1.2,-31.0,5.73,2.32,-26.3,32.9
2012-07-09 00:21:00,0.0,1.8971,0.0011,381.95,0.36,170.8,34.3,138.01,32.79,24.65,36.41,1.02,-25.86,-25.10,-64,551,-925,28.9,23.5,6.0,28.8,1.2,-30.9,5.73,2.29,-26.3,32.9
2012-07-09 00:22:00,0.0,1.8965,0.0013,382.24,0.33,176.5,29.8,138.01,32.80,24.65,36.41,1.08,-25.87,-25.37,-64,551,-925,28.9,22.5,5.4,28.8,1.2,-30.9,5.73,2.30,-26.3,32.9
2012-07-09 00:23:00,0.0,1.8971,0.0011,382.36,0.28,169.4,39.5,138.00,32.82,24.65,36.41,1.07,-25.87,-25.61,-64,552,-925,28.9,22.9,5.6,28.8,1.2,-30.9,5.73,2.31,-26.3,33.0
2012-07-09 00:24:00,0.0,1.8980,0.0013,381.99,0.30,166.6,39.5,138.00,32.83,24.65,36.41,0.99,-25.88,-25.84,-64,552,-925,28.9,23.7,6.1,28.9,1.2,-30.9,5.73,2.28,-26.3,32.9
2012-07-09 00:25:00,0.0,1.8970,0.0012,382.31,0.34,173.5,33.1,137.99,32.84,24.65,36.41,1.02,-25.89,-25.73,-64,552,-925,28.9,22.4,5.3,28.9,1.2,-30.9,5.73,2.31,-26.3,33.0
2012-07-09 00:26:00,0.0,1.8964,0.0013,382.53,0.34,179.7,37.2,138.00,32.84,24.65,36.41,1.01,-25.90,-25.67,-64,552,-925,29.0,21.9,5.0,28.9,1.2,-30.9,5.73,2.31,-26.3,33.0
2012-07-09 00:27:00,0.0,1.8964,0.0010,382.26,0.26,176.0,32.9,138.01,32.85,24.65,36.41,1.07,-25.91,-25.84,-64,552,-925,29.0,22.4,5.4,28.9,1.2,-30.9,5.73,2.28,-26.3,33.0
2012-07-09 00:28:00,0.0,1.8966,0.0015,382.10,0.45,181.0,41.9,137.99,32.87,24.65,36.41,0.98,-25.91,-25.82,-64,552,-925,29.0,23.1,5.8,28.9,1.2,-30.9,5.73,2.32,-26.3,32.9
2012-07-09 00:29:00,0.0,1.8948,0.0017,382.26,0.32,178.5,39.1,137.99,32.88,24.65,36.40,1.07,-25.93,-25.67,-64,552,-925,29.0,22.5,5.4,28.9,1.2,-30.9,5.73,2.30,-26.3,32.9
2012-07-09 00:30:00,0.0,1.8944,0.0014,382.46,0.32,165.8,40.7,138.00,32.89,24.65,36.41,1.02,-25.93,-25.82,-64,552,-925,29.0,22.0,5.1,28.9,1.2,-30.9,5.73,2.28,-26.3,32.9
2012-07-09 00:31:00,0.0,1.8947,0.0011,382.45,0.30,181.5,33.4,138.00,32.90,24.65,36.41,0.93,-25.94,-25.90,-64,552,-925,29.0,22.4,5.4,28.9,1.2,-30.9,5.73,2.32,-26.3,32.9
2012-07-09 00:32:00,0.0,1.8947,0.0011,382.41,0.37,172.4,25.8,138.00,32.90,24.65,36.41,1.04,-25.95,-25.69,-64,552,-925,29.0,21.9,5.0,28.9,1.2,-30.9,5.73,2.29,-26.3,32.9
2012-07-09 00:33:00,0.0,1.8945,0.0012,382.52,0.26,181.7,40.4,138.00,32.92,24.65,36.40,1.07,-25.96,-25.81,-64,552,-925,29.0,22.6,5.5,29.0,1.1,-31.1,5.73,2.29,-26.3,32.9
2012-07-09 00:34:00,0.0,1.8956,0.0012,382.01,0.27,180.8,30.5,138.00,32.93,24.65,36.41,1.04,-25.96,-25.96,-64,552,-925,29.0,22.9,5.7,29.0,1.1,-31.1,5.73,2.32,-26.3,32.9
2012-07-09 00:35:00,0.0,1.8956,0.0011,382.39,0.25,174.5,36.3,138.00,32.94,24.65,36.40,1.00,-25.97,-25.72,-64,552,-925,29.1,21.8,5.1,29.0,1.1,-31.0,5.73,2.28,-26.3,32.9
2012-07-09 00:36:00,0.0,1.8947,0.0010,382.55,0.32,185.5,34.7,138.00,32.95,24.65,36.41,0.99,-25.98,-25.79,-64,552,-925,29.1,21.2,4.7,29.0,1.1,-31.1,5.73,2.30,-26.3,32.9
2012-07-09 00:37:00,0.0,1.8956,0.0011,382.32,0.33,171.6,31.9,138.00,32.96,24.65,36.41,1.03,-25.98,-25.97,-64,552,-926,29.1,22.2,5.3,29.0,1.1,-31.1,5.73,2.31,-26.3,33.0
2012-07-09 00:38:00,0.0,1.8953,0.0010,382.18,0.29,179.0,35.2,138.00,32.97,24.65,36.41,1.03,-26.00,-25.77,-64,552,-925,29.1,22.0,5.2,29.0,1.1,-31.1,5.73,2.27,-26.3,33.0
2012-07-09 00:39:00,0.0,1.8957,0.0013,382.14,0.27,169.5,37.4,138.00,32.98,24.65,36.41,0.99,-25.84,-25.78,-64,552,-925,29.1,22.4,5.5,29.0,1.1,-31.0,5.73,2.31,-26.3,32.9
2012-07-09 00:40:00,0.0,1.8961,0.0011,382.20,0.24,179.4,38.7,138.00,32.99,24.65,36.40,0.89,-24.49,-25.95,-64,552,-925,29.1,22.0,5.2,29.0,1.2,-30.8,5.73,2.28,-26.3,33.0
2012-07-09 00:41:00,0.0,1.8954,0.0011,382.42,0.35,182.9,30.1,138.00,33.00,24.65,36.40,0.91,-22.57,-26.08,-64,552,-926,29.1,22.3,5.4,29.0,1.3,-29.7,5.73,2.29,-26.3,33.0
2012-07-09 00:42:00,0.0,1.8961,0.0010,381.98,0.30,175.9,37.2,138.00,33.01,24.65,36.41,0.93,-20.62,-26.17,-64,552,-926,29.1,23.0,5.8,29.0,1.4,-28.8,5.73,2.31,-26.3,33.0
2012-07-09 00:43:00,0.0,1.8969,0.0011,381.89,0.30,190.2,33.0,138.00,33.01,24.64,36.41,0.94,-18.73,-26.24,-64,552,-925,29.1,22.5,5.5,29.0,1.4,-28.5,5.73,2.28,-26.3,33.0
2012-07-09 00:44:00,0.0,1.8960,0.0010,382.28,0.32,180.2,35.2,138.00,33.02,24.65,36.41,0.95,-16.93,-26.28,-64,552,-925,29.1,21.6,4.9,29.0,1.5,-28.5,5.73,2.30,-26.3,33.1
2012-07-09 00:45:00,0.0,1.8959,0.0011,382.10,0.33,180.0,34.1,138.00,33.03,24.65,36.40,0.96,-15.22,-26.31,-64,552,-925,29.1,22.4,5.4,29.0,1.4,-28.7,5.73,2.30,-26.3,33.0
2012-07-09 00:46:00,0.0,1.8970,0.0010,381.78,0.30,187.6,34.2,138.00,33.04,24.65,36.41,0.96,-13.61,-26.33,-64,552,-925,29.1,22.9,5.8,29.0,1.4,-28.9,5.73,2.28,-26.3,33.0
2012-07-09 00:47:00,0.0,1.8981,0.0012,381.82,0.31,177.7,37.9,138.00,33.05,24.65,36.40,0.96,-12.06,-26.35,-64,552,-925,29.1,22.1,5.3,29.0,1.4,-29.2,5.73,2.31,-26.3,33.1
2012-07-09 00:48:00,0.0,1.8979,0.0011,382.73,0.32,179.9,35.5,138.00,33.06,24.64,36.40,0.94,-10.61,-26.37,-64,552,-926,29.1,20.6,4.2,29.0,1.3,-29.4,5.73,2.28,-26.2,33.1
2012-07-09 00:49:00,0.0,1.8972,0.0010,382.80,0.31,187.7,28.0,138.00,33.07,24.65,36.40,0.92,-9.23,-26.38,-64,552,-925,29.1,20.6,4.3,29.0,1.3,-29.6,5.73,2.29,-26.2,33.0
2012-07-09 00:50:00,0.0,1.8982,0.0010,382.54,0.35,184.2,31.1,138.00,33.08,24.65,36.40,0.89,-7.92,-26.39,-64,553,-925,29.1,21.6,4.9,29.0,1.3,-29.7,5.73,2.31,-26.2,33.0
2012-07-09 00:51:00,0.0,1.8980,0.0011,382.23,0.34,174.8,33.5,138.00,33.08,24.65,36.40,0.91,-6.69,-26.40,-64,552,-926,29.1,22.2,5.3,29.0,1.3,-29.8,5.73,2.28,-26.2,33.1
2012-07-09 00:52:00,0.0,1.8983,0.0009,382.17,0.30,185.1,30.8,138.00,33.09,24.65,36.39,0.93,-5.52,-26.40,-64,553,-926,29.1,22.1,5.2,29.0,1.2,-30.1,5.73,2.31,-26.2,33.1
2012-07-09 00:53:00,0.0,1.8982,0.0009,382.17,0.36,193.0,35.3,138.00,33.10,24.65,36.39,0.94,-4.40,-26.40,-64,553,-926,29.1,22.0,5.2,29.0,1.2,-30.2,5.73,2.30,-26.2,33.1
2012-07-09 00:54:00,0.0,1.8978,0.0012,382.55,0.28,183.4,32.2,138.00,33.11,24.65,36.40,0.94,-3.34,-26.40,-64,553,-926,29.1,21.0,4.5,29.1,1.2,-30.3,5.73,2.28,-26.2,33.1
2012-07-09 00:55:00,0.0,1.8982,0.0014,382.69,0.27,190.4,34.1,138.00,33.12,24.64,36.40,0.95,-2.32,-26.40,-64,553,-925,29.1,21.3,4.8,29.1,1.2,-30.5,5.73,2.31,-26.1,33.1
2012-07-09 00:56:00,0.0,1.8989,0.0011,382.34,0.26,199.3,33.8,138.00,33.13,24.65,36.39,0.94,-1.38,-26.40,-64,553,-926,29.1,22.0,5.2,29.1,1.2,-30.6,5.73,2.29,-26.1,33.1
2012-07-09 00:57:00,0.0,1.8987,0.0011,382.37,0.37,182.3,36.1,138.00,33.14,24.65,36.41,0.96,-0.47,-26.39,-64,553,-926,29.1,21.3,4.7,29.1,1.2,-30.7,5.73,2.29,-26.1,33.1
2012-07-09 00:58:00,0.0,1.8982,0.0009,382.60,0.37,189.6,33.8,138.00,33.15,24.65,36.39,0.95,0.38,-26.39,-64,553,-926,29.1,21.3,4.7,29.1,1.2,-30.8,5.73,2.31,-26.1,33.1
2012-07-09 00:59:00,0.0,1.8983,0.0011,382.78,0.31,182.5,38.5,138.00,33.16,24.65,36.39,0.95,1.19,-26.39,-64,553,-925,29.1,21.1,4.7,29.1,1.2,-30.8,5.73,2.27,-26.1,33.1
2012-07-09 01:00:00,0.0,1.8991,0.0011,382.64,0.29,192.9,31.2,138.00,33.17,24.65,36.39,0.95,1.96,-26.38,-64,553,-926,29.1,21.7,5.0,29.1,1.2,-30.8,5.73,2.31,-26.1,33.1
2012-07-09 01:01:00,0.0,1.8990,0.0011,382.75,0.31,198.5,32.1,138.00,33.18,24.65,36.39,0.95,2.62,-26.37,-64,553,-926,29.1,21.2,4.7,29.1,1.1,-31.1,5.73,2.29,-26.1,33.1
2012-07-09 01:02:00,0.0,1.8987,0.0014,382.73,0.35,195.9,36.1,138.00,33.18,24.65,36.40,0.97,2.94,-26.37,-64,553,-926,29.2,20.8,4.4,29.1,1.1,-31.0,5.73,2.28,-26.1,33.2
2012-07-09 01:03:00,0.0,1.8978,0.0011,382.89,0.29,200.1,34.9,138.00,33.19,24.65,36.40,0.96,3.15,-26.36,-64,553,-926,29.2,20.7,4.4,29.1,1.1,-31.0,5.73,2.31,-26.1,33.2
2012-07-09 01:04:00,0.0,1.8984,0.0010,382.86,0.32,206.3,32.4,138.00,33.20,24.65,36.39,1.18,-17.06,-45.10,-64,553,-926,29.2,21.4,4.8,29.1,1.1,-31.4,5.41,2.36,-30.3,33.2
2012-07-09 01:05:00,0.0,1.8986,0.0009,382.69,0.30,198.2,36.2,138.00,33.21,24.65,36.40,0.96,4.12,-26.34,-64,553,-926,29.2,21.4,4.9,29.1,1.1,-31.3,5.73,2.30,-26.1,33.3
2012-07-09 01:06:00,0.0,1.8976,0.0012,383.02,0.29,201.4,31.2,138.00,33.22,24.65,36.39,0.96,4.67,-26.33,-64,553,-926,29.2,20.9,4.5,29.1,1.1,-31.3,5.73,2.30,-26.1,33.2
2012-07-09 01:07:00,0.0,1.8977,0.0010,383.16,0.27,197.0,31.4,138.00,33.23,24.65,36.39,0.96,5.22,-26.32,-64,553,-926,29.2,20.9,4.5,29.1,1.1,-31.3,5.73,2.27,-26.1,33.2
2012-07-09 01:08:00,0.0,1.8978,0.0012,383.02,0.30,189.5,32.2,138.00,33.24,24.65,36.39,0.96,5.75,-26.31,-64,553,-925,29.2,21.1,4.7,29.1,1.1,-31.3,5.73,2.31,-26.1,33.2
2012-07-09 01:09:00,0.0,1.8972,0.0011,382.98,0.28,193.0,33.9,138.00,33.25,24.65,36.39,0.96,6.26,-26.30,-64,553,-926,29.2,21.3,4.8,29.2,1.1,-31.3,5.73,2.29,-26.1,33.2
2012-07-09 01:10:00,0.0,1.8987,0.0008,382.78,0.37,197.3,31.4,138.00,33.26,24.65,36.39,0.97,6.76,-26.29,-64,553,-926,29.2,21.6,5.1,29.2,1.1,-31.2,5.73,2.29,-26.1,33.2
2012-07-09 01:11:00,0.0,1.8978,0.0011,382.83,0.32,191.5,34.3,138.00,33.26,24.65,36.40,0.96,7.23,-26.28,-64,553,-926,29.2,21.3,4.8,29.2,1.1,-31.3,5.73,2.31,-26.1,33.2
2012-07-09 01:12:00,0.0,1.8971,0.0011,382.77,0.29,197.0,37.4,138.00,33.27,24.65,36.39,0.96,7.69,-26.27,-64,553,-926,29.2,21.7,5.1,29.2,1.1,-31.3,5.73,2.27,-26.1,33.2
2012-07-09 01:13:00,0.0,1.8981,0.0012,382.58,0.27,195.0,36.7,138.00,33.28,24.65,36.39,0.96,8.13,-26.26,-64,553,-926,29.2,22.1,5.4,29.2,1.1,-31.4,5.73,2.31,-26.1,33.3
2012-07-09 01:14:00,0.0,1.8998,0.0010,382.54,0.32,204.3,40.0,138.00,33.29,24.65,36.38,0.96,8.54,-26.25,-64,553,-926,29.2,22.3,5.5,29.2,1.1,-31.6,5.73,2.29,-26.1,33.3
2012-07-09 01:15:00,0.0,1.8999,0.0010,382.37,0.28,199.1,39.2,138.00,33.29,24.65,36.39,0.95,8.94,-26.23,-64,553,-926,29.2,22.4,5.5,29.2,1.1,-31.5,5.73,2.28,-26.1,33.3
2012-07-09 01:16:00,0.0,1.8994,0.0012,382.59,0.28,190.7,34.1,138.00,33.30,24.65,36.39,0.97,9.33,-26.23,-64,553,-926,29.3,22.1,5.4,29.2,1.1,-31.5,5.73,2.31,-26.1,33.3
2012-07-09 01:17:00,0.0,1.8997,0.0011,382.45,0.29,199.3,36.6,138.00,33.31,24.65,36.39,0.95,9.70,-26.22,-64,553,-926,29.3,22.3,5.5,29.2,1.1,-31.5,5.73,2.27,-26.1,33.3
2012-07-09 01:18:00,0.0,1.8988,0.0011,382.47,0.27,191.1,31.1,138.00,33.32,24.65,36.39,0.96,10.07,-26.21,-64,553,-926,29.3,22.3,5.5,29.2,1.1,-31.4,5.73,2.30,-26.1,33.3
2012-07-09 01:19:00,0.0,1.9014,0.0016,382.47,0.27,191.7,35.4,138.00,33.33,24.65,36.39,0.96,10.42,-26.20,-64,553,-926,29.3,22.7,5.8,29.2,1.1,-31.5,5.73,2.30,-26.0,33.3
2012-07-09 01:20:00,0.0,1.9014,0.0015,382.43,0.29,205.7,31.6,138.00,33.34,24.65,36.38,0.96,10.76,-26.19,-64,553,-926,29.3,22.7,5.8,29.2,1.1,-31.5,5.73,2.27,-26.0,33.3
2012-07-09 01:21:00,0.0,1.9011,0.0012,382.39,0.26,197.1,34.6,138.00,33.34,24.64,36.39,0.96,11.10,-26.18,-64,553,-926,29.3,23.0,6.0,29.2,1.1,-31.4,5.73,2.31,-26.1,33.3
2012-07-09 01:22:00,0.0,1.9004,0.0013,382.40,0.35,194.0,32.7,138.00,33.35,24.64,36.39,0.96,11.41,-26.17,-64,553,-926,29.3,22.8,5.9,29.2,1.1,-31.5,5.73,2.28,-26.1,33.3
2012-07-09 01:23:00,0.0,1.8997,0.0013,382.69,0.28,194.5,28.9,138.00,33.36,24.65,36.39,0.96,11.72,-26.16,-64,553,-926,29.3,22.5,5.6,29.2,1.1,-31.5,5.73,2.29,-26.1,33.3
2012-07-09 01:24:00,0.0,1.9001,0.0011,382.62,0.26,196.8,30.2,138.00,33.37,24.65,36.39,0.96,12.03,-26.15,-64,553,-926,29.3,22.5,5.7,29.2,1.1,-31.5,5.73,2.31,-26.1,33.2
2012-07-09 01:25:00,0.0,1.8998,0.0013,382.70,0.32,193.7,33.4,138.00,33.38,24.65,36.39,0.96,12.31,-26.14,-64,553,-926,29.3,22.7,5.8,29.2,1.1,-31.5,5.73,2.27,-26.1,33.3
2012-07-09 01:26:00,0.0,1.9000,0.0011,382.77,0.32,198.9,29.2,138.00,33.38,24.65,36.39,0.95,12.59,-26.13,-64,553,-926,29.3,22.7,5.8,29.2,1.1,-31.5,5.73,2.31,-26.1,33.3
2012-07-09 01:27:00,0.0,1.8999,0.0010,382.81,0.30,199.8,32.9,138.00,33.39,24.65,36.39,0.97,12.85,-26.12,-64,553,-926,29.3,22.8,5.9,29.2,1.1,-31.5,5.73,2.28,-26.1,33.3
2012-07-09 01:28:00,0.0,1.9009,0.0012,382.85,0.29,201.9,26.5,138.00,33.40,24.65,36.39,0.96,13.11,-26.11,-64,553,-926,29.3,23.1,6.1,29.2,1.1,-31.5,5.73,2.29,-26.1,33.2
2012-07-09 01:29:00,0.0,1.9024,0.0014,382.73,0.31,200.4,37.3,138.00,33.41,24.65,36.38,0.95,13.35,-26.10,-64,553,-926,29.3,23.3,6.2,29.2,1.1,-31.4,5.73,2.31,-26.1,33.3
2012-07-09 01:30:00,0.0,1.9013,0.0016,382.78,0.29,197.9,34.6,138.00,33.42,24.65,36.39,0.97,13.58,-26.10,-64,553,-926,29.3,22.9,6.0,29.3,1.1,-31.5,5.73,2.27,-26.1,33.3
2012-07-09 01:31:00,0.0,1.9011,0.0011,382.82,0.28,209.0,36.0,138.00,33.43,24.65,36.39,0.96,13.81,-26.09,-64,553,-926,29.3,23.0,6.0,29.3,1.1,-31.4,5.73,2.31,-26.1,33.3
2012-07-09 01:32:00,0.0,1.9021,0.0014,382.58,0.28,198.9,33.7,138.00,33.43,24.65,36.39,0.95,14.02,-26.07,-64,553,-926,29.3,22.7,5.8,29.3,1.1,-31.5,5.73,2.28,-26.1,33.3
2012-07-09 01:33:00,0.0,1.9005,0.0011,382.60,0.29,203.3,34.9,138.00,33.44,24.65,36.39,0.96,14.23,-26.07,-64,554,-926,29.4,22.6,5.8,29.3,1.1,-31.5,5.73,2.28,-26.1,33.3
2012-07-09 01:34:00,0.0,1.8998,0.0010,382.59,0.28,196.1,32.2,138.00,33.45,24.65,36.39,0.97,14.43,-26.06,-64,554,-926,29.4,22.4,5.7,29.3,1.1,-31.2,5.73,2.31,-26.1,33.3
2012-07-09 01:35:00,0.0,1.9022,0.0012,382.52,0.29,192.2,29.9,138.00,33.46,24.64,36.39,0.97,14.62,-26.05,-64,554,-926,29.3,22.8,5.9,29.3,1.1,-31.5,5.73,2.27,-26.1,33.3
2012-07-09 01:36:00,0.0,1.9027,0.0010,382.52,0.32,189.9,37.0,138.00,33.47,24.64,36.38,0.96,14.80,-26.05,-64,554,-926,29.4,22.6,5.8,29.3,1.1,-31.6,5.73,2.31,-26.1,33.3
2012-07-09 01:37:00,0.0,1.9021,0.0011,382.44,0.33,210.4,33.4,138.00,33.48,24.65,36.39,0.95,14.97,-26.04,-64,554,-926,29.4,22.4,5.7,29.3,1.1,-31.4,5.73,2.28,-26.1,33.3
2012-07-09 01:38:00,0.0,1.9018,0.0013,382.47,0.35,204.8,29.8,138.00,33.48,24.65,36.39,0.96,15.14,-26.03,-64,554,-926,29.4,22.4,5.6,29.3,1.1,-31.5,5.73,2.28,-26.1,33.4
2012-07-09 01:39:00,0.0,1.9008,0.0013,382.43,0.27,198.7,29.9,138.00,33.49,24.65,36.39,0.96,15.30,-26.02,-64,554,-926,29.4,22.4,5.7,29.3,1.1,-31.3,5.73,2.31,-26.1,33.5
2012-07-09 01:40:00,0.0,1.9007,0.0015,382.46,0.31,204.4,34.7,138.00,33.50,24.65,36.39,0.96,15.45,-26.01,-64,553,-926,29.4,22.1,5.5,29.3,1.1,-31.4,5.73,2.27,-26.1,33.4
2012-07-09 01:41:00,0.0,1.9009,0.0013,382.48,0.31,203.8,28.8,138.00,33.51,24.65,36.38,0.96,15.60,-26.01,-64,554,-926,29.4,22.1,5.5,29.3,1.1,-31.4,5.73,2.30,-26.1,33.4
2012-07-09 01:42:00,0.0,1.9026,0.0011,382.16,0.28,196.5,33.5,138.00,33.51,24.64,36.39,0.96,15.73,-26.00,-64,554,-926,29.4,22.3,5.6,29.3,1.1,-31.4,5.73,2.28,-26.1,33.5
2012-07-09 01:43:00,0.0,1.9013,0.0017,382.26,0.33,201.8,27.7,138.00,33.52,24.65,36.39,0.95,15.87,-26.00,-64,554,-926,29.4,21.6,5.2,29.4,1.1,-31.5,5.73,2.28,-26.1,33.5
2012-07-09 01:44:00,0.0,1.8995,0.0011,382.48,0.23,200.2,31.6,137.99,33.53,24.65,36.39,0.96,16.00,-25.98,-64,554,-926,29.4,21.3,5.0,29.3,1.1,-31.3,5.73,2.30,-26.1,33.4
2012-07-09 01:45:00,0.0,1.8986,0.0011,382.43,0.32,198.5,32.3,138.00,33.54,24.65,36.39,0.96,16.12,-25.98,-64,554,-926,29.4,21.3,5.0,29.4,1.1,-31.3,5.73,2.27,-26.1,33.4
2012-07-09 01:46:00,0.0,1.8997,0.0010,382.31,0.35,208.0,33.0,138.00,33.55,24.64,36.39,0.96,16.24,-25.98,-64,554,-926,29.4,21.5,5.2,29.3,1.1,-31.5,5.73,2.30,-26.1,33.4
2012-07-09 01:47:00,0.0,1.8997,0.0011,382.39,0.30,196.0,33.4,137.99,33.55,24.65,36.39,0.97,16.35,-25.97,-64,554,-926,29.4,21.4,5.0,29.4,1.1,-31.3,5.73,2.28,-26.1,33.4
2012-07-09 01:48:00,0.0,1.8999,0.0011,382.39,0.29,197.9,32.5,137.99,33.56,24.65,36.38,0.96,16.45,-25.96,-64,554,-926,29.4,21.4,5.1,29.4,1.1,-31.5,5.73,2.28,-26.1,33.4
2012-07-09 01:49:00,0.0,1.9000,0.0010,382.42,0.28,198.4,32.9,137.99,33.57,24.65,36.38,0.96,16.55,-25.96,-64,554,-926,29.4,21.4,5.1,29.4,1.1,-31.4,5.73,2.31,-26.1,33.5
2012-07-09 01:50:00,0.0,1.8997,0.0013,382.45,0.35,200.4,34.4,137.99,33.58,24.64,36.38,0.96,16.65,-25.96,-64,554,-926,29.4,21.5,5.1,29.4,1.1,-31.4,5.73,2.27,-26.1,33.5
2012-07-09 01:51:00,0.0,1.9008,0.0012,382.27,0.34,198.0,33.0,137.99,33.58,24.65,36.37,0.97,16.75,-25.95,-64,554,-926,29.5,22.0,5.5,29.4,1.1,-31.3,5.73,2.30,-26.1,33.5
2012-07-09 01:52:00,0.0,1.9004,0.0009,382.22,0.31,204.9,38.3,138.00,33.59,24.65,36.37,0.95,16.84,-25.94,-64,554,-926,29.5,22.0,5.5,29.4,1.1,-31.3,5.73,2.28,-26.1,33.5
2012-07-09 01:53:00,0.0,1.9002,0.0015,382.07,0.30,212.1,28.0,137.99,33.60,24.65,36.38,0.97,16.93,-25.94,-64,554,-926,29.5,22.2,5.6,29.4,1.1,-31.3,5.73,2.28,-26.1,33.5
2012-07-09 01:54:00,0.0,1.9011,0.0015,381.78,0.33,209.5,27.1,137.99,33.61,24.65,36.39,0.96,17.01,-25.93,-64,554,-926,29.5,22.3,5.7,29.4,1.1,-31.4,5.73,2.30,-26.1,33.6
2012-07-09 01:55:00,0.0,1.9005,0.0010,381.91,0.34,201.8,32.7,137.99,33.62,24.65,36.39,0.98,17.09,-25.92,-64,554,-926,29.5,22.5,5.8,29.4,1.1,-31.3,5.73,2.27,-26.1,33.5
2012-07-09 01:56:00,0.0,1.9035,0.0012,381.26,0.38,206.8,34.9,137.99,33.63,24.65,36.39,0.97,17.17,-25.92,-64,554,-926,29.5,23.1,6.3,29.4,1.1,-31.3,5.73,2.31,-26.1,33.5
2012-07-09 01:57:00,0.0,1.9024,0.0013,381.52,0.38,199.4,30.5,137.99,33.63,24.65,36.38,0.97,17.24,-25.92,-64,554,-926,29.5,22.8,6.0,29.4,1.1,-31.4,5.73,2.28,-26.1,33.5
2012-07-09 01:58:00,0.0,1.9026,0.0016,381.45,0.37,196.3,34.1,137.99,33.64,24.65,36.38,0.97,17.31,-25.92,-64,554,-926,29.5,22.8,6.1,29.4,1.1,-31.4,5.73,2.28,-26.1,33.5
2012-07-09 01:59:00,0.0,1.9010,0.0010,381.70,0.30,203.0,32.2,137.99,33.65,24.64,36.38,0.96,17.38,-25.91,-64,554,-926,29.5,22.8,6.1,29.5,1.1,-31.4,5.73,2.30,-26.1,33.5
2012-07-09 02:00:00,0.0,1.9012,0.0012,381.57,0.35,205.9,36.0,137.99,33.66,24.65,36.38,0.96,17.44,-25.91,-64,554,-926,29.5,23.1,6.3,29.5,1.1,-31.4,5.73,2.27,-26.1,33.6
2012-07-09 02:01:00,0.0,1.9017,0.0009,381.39,0.29,203.7,29.0,137.99,33.67,24.65,36.38,0.96,17.50,-25.91,-64,554,-926,29.5,23.1,6.2,29.5,1.1,-31.4,5.73,2.31,-26.1,33.6
2012-07-09 02:02:00,0.0,1.9009,0.0010,381.47,0.36,204.9,33.8,137.99,33.68,24.65,36.38,0.98,17.56,-25.90,-64,554,-926,29.5,23.0,6.2,29.5,1.1,-31.3,5.73,2.27,-26.2,33.5
2012-07-09 02:03:00,0.0,1.9000,0.0010,381.55,0.28,201.4,33.9,137.99,33.68,24.65,36.38,0.96,17.61,-25.90,-64,554,-926,29.5,22.9,6.1,29.5,1.1,-31.5,5.73,2.29,-26.2,33.5
2012-07-09 02:04:00,0.0,1.9002,0.0010,381.54,0.38,204.3,27.2,137.99,33.69,24.65,36.38,0.97,17.67,-25.89,-64,554,-926,29.5,22.8,6.1,29.5,1.1,-31.3,5.73,2.29,-26.1,33.5
2012-07-09 02:05:00,0.0,1.9000,0.0009,381.59,0.28,204.2,31.6,137.99,33.70,24.65,36.38,0.97,17.72,-25.89,-64,554,-926,29.6,22.9,6.1,29.5,1.1,-31.4,5.73,2.27,-26.2,33.5
2012-07-09 02:06:00,0.0,1.9007,0.0012,381.58,0.30,203.4,30.0,137.99,33.71,24.65,36.38,0.97,17.77,-25.88,-64,554,-926,29.5,23.1,6.3,29.5,1.1,-31.5,5.73,2.30,-26.2,33.5
2012-07-09 02:07:00,0.0,1.9015,0.0010,381.42,0.34,201.6,32.4,137.99,33.72,24.64,36.38,0.97,17.82,-25.88,-64,554,-926,29.6,23.2,6.4,29.5,1.1,-31.3,5.73,2.27,-26.1,33.5
2012-07-09 02:08:00,0.0,1.9014,0.0010,381.24,0.35,205.3,33.2,137.99,33.72,24.65,36.39,0.97,17.87,-25.88,-64,554,-926,29.6,23.3,6.4,29.5,1.1,-31.3,5.73,2.30,-26.2,33.6
2012-07-09 02:09:00,0.0,1.9022,0.0009,381.31,0.32,202.7,30.4,137.99,33.73,24.65,36.38,0.98,17.91,-25.88,-64,554,-926,29.6,23.0,6.2,29.5,1.1,-31.1,5.73,2.28,-26.2,33.6
2012-07-09 02:10:00,0.0,1.9022,0.0009,381.26,0.31,204.9,29.3,137.99,33.74,24.65,36.38,0.97,17.95,-25.87,-64,554,-926,29.6,23.0,6.3,29.5,1.1,-31.2,5.73,2.28,-26.2,33.6
2012-07-09 02:11:00,0.0,1.9032,0.0013,380.98,0.32,204.3,29.9,137.99,33.74,24.65,36.38,0.98,17.99,-25.87,-64,554,-926,29.6,23.1,6.3,29.5,1.1,-31.3,5.73,2.30,-26.2,33.6
2012-07-09 02:12:00,0.0,1.9029,0.0011,381.23,0.33,205.6,34.0,137.99,33.75,24.65,36.38,0.99,18.03,-25.86,-64,554,-926,29.6,22.9,6.2,29.5,1.1,-31.3,5.73,2.26,-26.1,33.6
2012-07-09 02:13:00,0.0,1.9013,0.0012,381.31,0.38,210.4,36.7,137.99,33.76,24.65,36.38,0.97,18.07,-25.86,-64,554,-926,29.6,22.3,5.8,29.6,1.1,-31.2,5.73,2.30,-26.1,33.6
2012-07-09 02:14:00,0.0,1.9032,0.0011,381.15,0.33,200.9,29.2,137.99,33.76,24.65,36.38,0.98,18.11,-25.86,-64,554,-926,29.6,22.8,6.1,29.5,1.1,-31.3,5.73,2.27,-26.2,33.6
2012-07-09 02:15:00,0.0,1.9032,0.0012,381.06,0.37,202.4,34.3,137.99,33.77,24.65,36.38,0.98,18.14,-25.86,-64,555,-926,29.6,22.9,6.2,29.6,1.1,-31.2,5.73,2.28,-26.1,33.6
2012-07-09 02:16:00,0.0,1.9031,0.0012,381.12,0.30,205.9,30.8,137.99,33.78,24.65,36.37,0.97,18.17,-25.85,-64,554,-926,29.6,23.1,6.3,29.6,1.1,-31.2,5.73,2.29,-26.2,33.6
2012-07-09 02:17:00,0.0,1.9025,0.0015,381.09,0.32,206.7,35.5,137.99,33.79,24.65,36.38,0.97,18.20,-25.85,-64,554,-926,29.7,22.9,6.3,29.5,1.1,-31.3,5.73,2.27,-26.1,33.6
2012-07-09 02:18:00,0.0,1.9033,0.0012,380.99,0.37,207.6,32.9,137.99,33.80,24.64,36.38,0.96,18.23,-25.85,-64,554,-926,29.7,22.9,6.2,29.6,1.1,-31.5,5.73,2.31,-26.2,33.6
2012-07-09 02:19:00,0.0,1.9020,0.0014,380.92,0.33,206.5,36.3,137.99,33.80,24.65,36.38,0.97,18.26,-25.84,-64,554,-926,29.7,23.0,6.3,29.6,1.1,-31.5,5.73,2.26,-26.2,33.6
2012-07-09 02:20:00,0.0,1.9003,0.0010,381.01,0.29,202.3,30.4,137.99,33.81,24.65,36.38,0.97,18.28,-25.84,-64,554,-926,29.7,22.5,6.0,29.6,1.1,-31.2,5.73,2.29,-26.2,33.6